"Pseudo-MPEC" for P11drUd

Created 2021 Feb 25 9:07:12 UT using Find_Orb

Click here for an explanation of pseudo-MPECs

 
 Astrometry: 
     P11drUd  C2021 02 16m])V^y89H_TR^i')N*yAstrometryo`9s7]V6^redacted;aW,x;F51
     P11drUd  C2021 02 166nTP=n^IR'P[EX?E(click%8!v1,4hererdtqY7-ME7j9OmkVxLVF51
     P11drUd  C2021 02 16k!^Km:ACKNXxlRI%C0Rforiw(explanationQjNbhyFs7KfQF0WNF51

Station data:
(F51) Pan-STARRS 1, Haleakala  (N20.707235 W156.255910)  US/Hawaii.
   Observers N. Primak, A. Schultz, S. Watters, J. Thiel, T. Goggia. Measurer
   PS1 Science Consortium. 1.8-m Ritchey-Chrétien + CCD.

Orbital elements:  P11drUd
   Perihelion 2020 Oct 21.609928 +/- 78.6124 TT = 14:38:17 (JD 2459144.109928)
Epoch 2021 Feb 17.0 TT = JDT 2459262.5   Earth MOID: 0.0303   Ve: 0.0765
M 128.32598400 +/- 115.40826        (J2000 ecliptic)          AutoNEOCP
n   1.08392521 +/- 0.674098         Peri.  221.37389 +/- 73.055345
a   0.93857684 +/- 0.389129         Node   148.46038 +/- 3.8840736
e   0.1453978 +/- 0.232369          Incl.    6.31525 +/- 41.608303
P   0.91/332.12d           H 26.4   G  0.15   U 12.5  SR
q 0.80210981 +/- 0.39942    Q 1.07504387 +/- 13.9982
From 3 observations 2021 Feb. 16 (53.3 min); mean residual 0".19
Residuals in arcseconds: 
210216 F51  .11+  .06-    210216 F51  .33-  .18+    210216 F51  .22+  .12-    

Ephemerides (geocentric):
Date (UTC) HH   RA              Dec         delta   r     elong  mag " sig PA
---- -- -- --  -------------   -----------  ------ ------ -----  --- ---- ---
2021 02 25 09  11 27 58.907   +21 53 43.45  .05976 1.0468 161.7 21.3  56d   0
2021 02 25 10  11 27 47.829   +21 58 36.96  .05982 1.0469 161.7 21.3  56d   0
2021 02 25 11  11 27 36.755   +22 03 29.82  .05987 1.0469 161.7 21.3  56d   0
2021 02 25 12  11 27 25.683   +22 08 22.06  .05993 1.0470 161.7 21.3  56d   0
2021 02 25 13  11 27 14.615   +22 13 13.65  .05998 1.0470 161.7 21.3  56d   0
2021 02 25 14  11 27 03.550   +22 18 04.60  .06004 1.0471 161.7 21.3  56d 179
2021 02 25 15  11 26 52.488   +22 22 54.91  .06009 1.0472 161.6 21.4  56d 179
2021 02 25 16  11 26 41.429   +22 27 44.58  .06015 1.0472 161.6 21.4  56d 179
2021 02 25 17  11 26 30.374   +22 32 33.61  .06020 1.0473 161.6 21.4  56d 179
2021 02 25 18  11 26 19.323   +22 37 22.00  .06026 1.0473 161.6 21.4  56d 179
2021 02 25 19  11 26 08.275   +22 42 09.74  .06031 1.0474 161.6 21.4  56d 179
2021 02 25 20  11 25 57.230   +22 46 56.84  .06037 1.0474 161.6 21.4  56d 179
2021 02 25 21  11 25 46.189   +22 51 43.29  .06042 1.0475 161.6 21.4  56d 179
2021 02 25 22  11 25 35.152   +22 56 29.10  .06048 1.0476 161.5 21.4  56d 179
2021 02 25 23  11 25 24.118   +23 01 14.27  .06054 1.0476 161.5 21.4  56d 179
2021 02 26 00  11 25 13.089   +23 05 58.78  .06059 1.0477 161.5 21.4  56d 179
2021 02 26 01  11 25 02.063   +23 10 42.65  .06065 1.0477 161.5 21.4  56d 179
2021 02 26 02  11 24 51.041   +23 15 25.87  .06071 1.0478 161.5 21.4  56d 179
2021 02 26 03  11 24 40.023   +23 20 08.44  .06077 1.0478 161.4 21.4  56d 179
2021 02 26 04  11 24 29.008   +23 24 50.37  .06082 1.0479 161.4 21.4  56d 179
2021 02 26 05  11 24 17.998   +23 29 31.64  .06088 1.0480 161.4 21.4  56d 179
2021 02 26 06  11 24 06.992   +23 34 12.26  .06094 1.0480 161.4 21.4  56d 179
2021 02 26 07  11 23 55.990   +23 38 52.24  .06100 1.0481 161.3 21.4  56d 179
2021 02 26 08  11 23 44.992   +23 43 31.56  .06106 1.0481 161.3 21.4  56d 179
2021 02 26 09  11 23 33.999   +23 48 10.23  .06111 1.0482 161.3 21.4  56d 179
2021 02 26 10  11 23 23.010   +23 52 48.24  .06117 1.0482 161.3 21.4  56d 179
2021 02 26 11  11 23 12.025   +23 57 25.61  .06123 1.0483 161.2 21.4  56d 179
2021 02 26 12  11 23 01.044   +24 02 02.32  .06129 1.0484 161.2 21.4  56d 178
2021 02 26 13  11 22 50.068   +24 06 38.38  .06135 1.0484 161.2 21.4  56d 178
2021 02 26 14  11 22 39.096   +24 11 13.79  .06141 1.0485 161.2 21.4  56d 178
2021 02 26 15  11 22 28.129   +24 15 48.54  .06147 1.0485 161.1 21.4  56d 178
2021 02 26 16  11 22 17.166   +24 20 22.63  .06153 1.0486 161.1 21.4  56d 178
2021 02 26 17  11 22 06.208   +24 24 56.08  .06159 1.0486 161.1 21.4  56d 178
2021 02 26 18  11 21 55.255   +24 29 28.86  .06165 1.0487 161.0 21.4  56d 178
2021 02 26 19  11 21 44.306   +24 34 01.00  .06171 1.0488 161.0 21.4  56d 178
2021 02 26 20  11 21 33.362   +24 38 32.47  .06177 1.0488 161.0 21.4  56d 178
2021 02 26 21  11 21 22.423   +24 43 03.29  .06183 1.0489 160.9 21.4  56d 178
2021 02 26 22  11 21 11.489   +24 47 33.45  .06189 1.0489 160.9 21.4  56d 178
2021 02 26 23  11 21 00.559   +24 52 02.96  .06195 1.0490 160.9 21.4  56d 178
2021 02 27 00  11 20 49.635   +24 56 31.81  .06202 1.0490 160.8 21.4  56d 178
2021 02 27 01  11 20 38.715   +25 01 00.01  .06208 1.0491 160.8 21.5  56d 178
2021 02 27 02  11 20 27.801   +25 05 27.54  .06214 1.0492 160.8 21.5  56d 178
2021 02 27 03  11 20 16.892   +25 09 54.42  .06220 1.0492 160.7 21.5  56d 178
2021 02 27 04  11 20 05.987   +25 14 20.64  .06226 1.0493 160.7 21.5  56d 178
2021 02 27 05  11 19 55.088   +25 18 46.21  .06232 1.0493 160.6 21.5  56d 178
2021 02 27 06  11 19 44.195   +25 23 11.12  .06239 1.0494 160.6 21.5  56d 178
2021 02 27 07  11 19 33.306   +25 27 35.37  .06245 1.0494 160.6 21.5  56d 178
2021 02 27 08  11 19 22.423   +25 31 58.96  .06251 1.0495 160.5 21.5  56d 178